{"data":{"norad_id":40374,"intl_designator":"2015-002A","name":"MUOS-3","alt_names":[],"object_type":"PAYLOAD","status":"ACTIVE","operator":null,"country":"US","launch_date":"2015-01-21","launch_site_code":"AFETR","launch_vehicle":null,"mission":null,"orbit_class":"UNKNOWN","rcs_meters":20.8608,"size_class":null,"mass_kg":null,"dimensions":null,"purposes":["comms"],"wikipedia_slug":null,"has_3d_model":false,"image_url":null,"decayed_at":null,"tle_current":{"epoch":"2026-05-25T01:57:40.246848Z","epoch_age_seconds":64492,"freshness":"FRESH","line1":"1 40374U 15002A   26145.08171582 -.00000131  00000+0  00000+0 0  9990","line2":"2 40374   4.4771  43.4174 0051197 179.2348  33.9795  1.00272907 41350","mean_motion":1.00272907,"eccentricity":0.0051197,"inclination_deg":4.4771,"raan_deg":43.4174,"arg_perigee_deg":179.2348,"mean_anomaly_deg":33.9795,"bstar":0,"rev_number":4135,"period_min":1436.080834876,"perigee_km":35570.411258894,"apogee_km":36002.149594694,"semimajor_km":42164.417426794,"source":"CELESTRAK","updated_at":"2026-05-25T13:38:13.954622Z"}}}